Change the Weather History Date:

Friday, May 24, 2013

  Actual Average Record
Temperature  
Mean Temperature 44 °F -  
Max Temperature 51 °F 67 °F 82 °F (2012)
Min Temperature 37 °F 49 °F 33 °F (2004)
Degree Days  
Heating Degree Days 21    
Moisture  
Dew Point 38 °F    
Average Humidity 78    
Maximum Humidity 93    
Minimum Humidity 58    
Precipitation  
Precipitation 0.00 in - - ()
Sea Level Pressure  
Sea Level Pressure 29.83 in    
Wind  
Wind Speed 6 mph ()    
Max Wind Speed 16 mph    
Max Gust Speed 20 mph    
Visibility 6.2 miles    
Events Rain    
Averages and records for this station are not official NWS values.
T = Trace of Precipitation, MM = Missing Value Source: Averaged Metar Reports

Daily Weather History Graph

Daily Weather History Graph

Search for Another Location

Airport or City:

Trip Planner

Search our weather history database for the weather conditions in past years. The results will help you decide how hot, cold, wet, or windy it might be!

Date:

Astronomy

May. 24, 2013 Rise Set
Actual Time 5:36 AM CEST 9:38 PM CEST
Civil Twilight 4:52 AM CEST 10:22 PM CEST
Nautical Twilight 3:50 AM CEST 11:25 PM CEST
Astronomical Twilight 2:09 AM CEST 1:04 AM CEST
Moon 8:58 PM CEST (5/24) 5:03 AM CEST (5/24)
Length of Visible Light 17h 30m
Length of Day
16h 02m
Waxing Gibbous, 99% of the Moon is Illuminated
May 24
Waxing Gibbous
May 25
Full
May 31
Last Quarter
Jun 8
New
Jun 16
First Quarter

Hourly Weather History & Observations

Time (CEST) Temp. Windchill Dew Point Humidity Pressure Visibility Wind Dir Wind Speed Gust Speed Precip Events Conditions
12:25 AM 37.4 °F 34.9 °F 35.6 °F 93% 29.83 in 6.2 mi WSW 3.5 mph - N/A   Scattered Clouds
12:42 AM 37.4 °F - 35.6 °F 93% 29.83 in 6.2 mi West 2.3 mph - N/A   Mostly Cloudy
12:45 AM 39.2 °F 37.0 °F 35.6 °F 87% 29.83 in 6.2 mi WSW 3.5 mph - N/A   Mostly Cloudy
12:55 AM 37.4 °F 34.9 °F 33.8 °F 87% 29.83 in 6.2 mi West 3.5 mph - N/A   Mostly Cloudy
1:00 AM 39.2 °F 35.9 °F 37.4 °F 93% 29.83 in 3.7 mi West 4.6 mph - N/A   Overcast
1:05 AM 39.2 °F 35.9 °F 37.4 °F 93% 29.83 in 6.2 mi WSW 4.6 mph - N/A Rain Light Rain
1:09 AM 39.2 °F 35.9 °F 37.4 °F 93% 29.83 in 6.2 mi WSW 4.6 mph - N/A Rain Light Rain
1:13 AM 39.2 °F 35.9 °F 37.4 °F 93% 29.83 in 6.2 mi WSW 4.6 mph - N/A Rain Light Rain
1:25 AM 39.2 °F 35.9 °F 35.6 °F 87% 29.83 in 6.2 mi SW 4.6 mph - N/A   Scattered Clouds
1:50 AM 39.2 °F 37.0 °F 35.6 °F 87% 29.83 in 6.2 mi SW 3.5 mph - N/A   Mostly Cloudy
1:55 AM 39.2 °F 37.0 °F 37.4 °F 93% 29.83 in 6.2 mi SW 3.5 mph - N/A   Mostly Cloudy
2:00 AM 39.2 °F 35.9 °F 37.4 °F 93% 29.83 in 6.2 mi SW 4.6 mph - N/A   Mostly Cloudy
2:25 AM 39.2 °F 37.0 °F 37.4 °F 93% 29.83 in 6.2 mi SW 3.5 mph - N/A   Overcast
2:55 AM 39.2 °F 35.0 °F 37.4 °F 93% 29.83 in 6.2 mi SSW 5.8 mph - N/A   Overcast
3:16 AM 39.2 °F 35.0 °F 37.4 °F 93% 29.83 in 6.2 mi SSW 5.8 mph - N/A   Mostly Cloudy
3:25 AM 39.2 °F 35.0 °F 37.4 °F 93% 29.83 in 6.2 mi SSW 5.8 mph - N/A   Mostly Cloudy
3:43 AM 39.2 °F 35.9 °F 37.4 °F 93% 29.80 in 6.2 mi SSW 4.6 mph - N/A   Overcast
3:55 AM 39.2 °F 35.0 °F 37.4 °F 93% 29.80 in 6.2 mi SSW 5.8 mph - N/A   Overcast
4:25 AM 39.2 °F 35.9 °F 37.4 °F 93% 29.80 in 6.2 mi SSW 4.6 mph - N/A   Mostly Cloudy
4:55 AM 37.4 °F 32.8 °F 35.6 °F 93% 29.80 in 6.2 mi SSW 5.8 mph - N/A   Mostly Cloudy
5:25 AM 37.4 °F 33.8 °F 35.6 °F 93% 29.80 in 6.2 mi SSW 4.6 mph - N/A   Mostly Cloudy
5:55 AM 37.4 °F 33.8 °F 35.6 °F 93% 29.80 in 6.2 mi South 4.6 mph - N/A   Mostly Cloudy
6:25 AM 39.2 °F 35.9 °F 37.4 °F 93% 29.80 in 6.2 mi South 4.6 mph - N/A   Mostly Cloudy
6:55 AM 39.2 °F 34.2 °F 37.4 °F 93% 29.80 in 6.2 mi South 6.9 mph - N/A   Mostly Cloudy
7:25 AM 41.0 °F 35.8 °F 37.4 °F 87% 29.80 in 6.2 mi South 8.1 mph - N/A   Mostly Cloudy
7:55 AM 41.0 °F 35.8 °F 39.2 °F 93% 29.80 in 6.2 mi South 8.1 mph - N/A   Unknown
8:25 AM 42.8 °F 37.5 °F 39.2 °F 87% 29.80 in 6.2 mi South 9.2 mph - N/A   Light Drizzle
8:42 AM 42.8 °F 37.5 °F 39.2 °F 87% 29.80 in 6.2 mi South 9.2 mph - N/A   Mostly Cloudy
8:55 AM 42.8 °F 37.5 °F 39.2 °F 87% 29.80 in 6.2 mi South 9.2 mph - N/A   Partly Cloudy
9:25 AM 46.4 °F 40.7 °F 39.2 °F 76% 29.80 in 6.2 mi South 12.7 mph - N/A   Mostly Cloudy
9:34 AM 46.4 °F 40.7 °F 41.0 °F 81% 29.80 in 6.2 mi South 12.7 mph - N/A   Mostly Cloudy
9:55 AM 46.4 °F 39.8 °F 39.2 °F 76% 29.80 in 6.2 mi South 16.1 mph - N/A   Mostly Cloudy
10:07 AM 46.4 °F 40.1 °F 39.2 °F 76% 29.80 in 6.2 mi SSW 15.0 mph - N/A   Mostly Cloudy
10:25 AM 46.4 °F 40.4 °F 37.4 °F 71% 29.80 in 6.2 mi SSW 13.8 mph - N/A   Overcast
10:29 AM 46.4 °F 40.4 °F 37.4 °F 71% 29.80 in 6.2 mi South 13.8 mph - N/A   Mostly Cloudy
10:30 AM 46.4 °F 40.1 °F 37.4 °F 71% 29.80 in 6.2 mi South 15.0 mph - N/A   Mostly Cloudy
10:39 AM 46.4 °F 40.7 °F 39.2 °F 76% 29.80 in 6.2 mi South 12.7 mph - N/A Rain Light Rain
10:48 AM 44.6 °F 38.8 °F 39.2 °F 81% 29.80 in 6.2 mi SSW 11.5 mph - N/A Rain Drizzle
10:55 AM 46.4 °F 41.5 °F 39.2 °F 76% 29.80 in 6.2 mi SSW 10.4 mph - N/A   Mostly Cloudy
11:25 AM 50.0 °F - 39.2 °F 66% 29.80 in 6.2 mi South 12.7 mph - N/A   Mostly Cloudy
11:55 AM 50.0 °F - 39.2 °F 66% 29.80 in 6.2 mi SSW 11.5 mph - N/A   Mostly Cloudy
12:25 PM 50.0 °F - 37.4 °F 62% 29.80 in 6.2 mi South 16.1 mph - N/A   Mostly Cloudy
12:55 PM 48.2 °F - 39.2 °F 71% 29.83 in 6.2 mi SW 9.2 mph - N/A Rain Light Rain
1:25 PM 48.2 °F - 37.4 °F 66% 29.83 in 6.2 mi South 9.2 mph - N/A   Mostly Cloudy
1:30 PM 48.2 °F - 39.2 °F 71% 29.83 in 6.2 mi SSE 10.4 mph - N/A   Mostly Cloudy
1:40 PM 46.4 °F 41.9 °F 39.2 °F 76% 29.83 in 6.2 mi South 9.2 mph - N/A Rain Light Rain
1:55 PM 50.0 °F - 39.2 °F 66% 29.83 in 6.2 mi South 9.2 mph - N/A   Mostly Cloudy
2:10 PM 50.0 °F - 39.2 °F 66% 29.83 in 6.2 mi South 11.5 mph - N/A   Mostly Cloudy
2:25 PM 50.0 °F - 37.4 °F 62% 29.83 in 6.2 mi South 11.5 mph - N/A   Partly Cloudy
2:30 PM 50.0 °F - 39.2 °F 66% 29.83 in 6.2 mi South 10.4 mph - N/A   Partly Cloudy
2:37 PM 50.0 °F - 37.4 °F 62% 29.83 in 6.2 mi SSW 10.4 mph - N/A   Partly Cloudy
2:40 PM 50.0 °F - 37.4 °F 62% 29.83 in 6.2 mi SSW 10.4 mph - N/A   Partly Cloudy
2:55 PM 50.0 °F - 39.2 °F 66% 29.83 in 6.2 mi South 10.4 mph - N/A   Mostly Cloudy
3:03 PM 46.4 °F 40.1 °F 37.4 °F 71% 29.83 in 6.2 mi South 15.0 mph - N/A Rain Light Rain
3:07 PM 46.4 °F 41.5 °F 37.4 °F 71% 29.83 in 6.2 mi SSE 10.4 mph - N/A Rain Light Rain Showers
3:12 PM 46.4 °F 42.4 °F 37.4 °F 71% 29.83 in 6.2 mi SE 8.1 mph 19.6 mph N/A Rain Light Rain Showers
3:25 PM 48.2 °F - 39.2 °F 71% 29.83 in 6.2 mi SSE 4.6 mph - N/A   Mostly Cloudy
3:55 PM 50.0 °F - 37.4 °F 62% 29.83 in 6.2 mi South 6.9 mph - N/A Rain Light Rain
4:08 PM 51.8 °F - 37.4 °F 58% 29.83 in 6.2 mi South 5.8 mph - N/A   Scattered Clouds
4:25 PM 51.8 °F - 39.2 °F 62% 29.83 in 6.2 mi SE 6.9 mph - N/A   Scattered Clouds
4:45 PM 48.2 °F - 37.4 °F 66% 29.86 in 6.2 mi South 13.8 mph - N/A   Overcast
4:55 PM 48.2 °F - 35.6 °F 62% 29.86 in 6.2 mi SSW 4.6 mph - N/A   Mostly Cloudy
5:25 PM 50.0 °F - 35.6 °F 58% 29.86 in 6.2 mi SE 2.3 mph - N/A   Overcast
5:55 PM 50.0 °F - 37.4 °F 62% 29.86 in 6.2 mi South 6.9 mph - N/A   Mostly Cloudy
6:25 PM 50.0 °F - 37.4 °F 62% 29.86 in 6.2 mi ESE 4.6 mph - N/A   Mostly Cloudy
6:55 PM 51.8 °F - 37.4 °F 58% 29.86 in 6.2 mi East 6.9 mph - N/A   Mostly Cloudy
7:25 PM 50.0 °F - 37.4 °F 62% 29.86 in 6.2 mi SE 4.6 mph - N/A   Mostly Cloudy
7:55 PM 50.0 °F - 37.4 °F 62% 29.89 in 6.2 mi SSE 4.6 mph - N/A   Mostly Cloudy
8:25 PM 48.2 °F - 37.4 °F 66% 29.89 in 6.2 mi SSW 3.5 mph - N/A   Partly Cloudy
8:55 PM 46.4 °F - 39.2 °F 76% 29.89 in 6.2 mi North 1.2 mph - N/A Rain Light Rain
9:25 PM 44.6 °F - 39.2 °F 81% 29.89 in 6.2 mi West 2.3 mph - N/A   Overcast
9:55 PM 46.4 °F 45.2 °F 41.0 °F 81% 29.92 in 6.2 mi WSW 3.5 mph - N/A   Mostly Cloudy
10:25 PM 44.6 °F 43.1 °F 41.0 °F 87% 29.92 in 6.2 mi West 3.5 mph - N/A   Overcast
10:55 PM 46.4 °F 45.2 °F 41.0 °F 81% 29.95 in 6.2 mi NNW 3.5 mph - N/A   Mostly Cloudy
11:25 PM 46.4 °F 43.5 °F 39.2 °F 76% 29.95 in 6.2 mi North 5.8 mph - N/A   Overcast
11:55 PM 44.6 °F 43.1 °F 39.2 °F 81% 29.95 in 6.2 mi North 3.5 mph - N/A   Scattered Clouds